| time (UTC) | temp F | wind direction | speed MPH | gust MPH | rain 1hr in | rain 24hr in | rain mn in | humidity % | barometer mb |
| 20260506154518 | 53 | 22 | 6.0 | 10.0 | 0.00 | 0.00 | 0.00 | 88 | 948.0 |
| 20260506153017 | 51 | 18 | 9.0 | 13.0 | 0.00 | 0.00 | 0.00 | 89 | 947.9 |
| 20260506151517 | 51 | 56 | 8.0 | 12.0 | 0.00 | 0.00 | 0.00 | 90 | 948.1 |
| 20260506150016 | 50 | 37 | 4.0 | 11.0 | 0.00 | 0.00 | 0.00 | 91 | 948.1 |
| 20260506144515 | 51 | 333 | 4.0 | 9.0 | 0.00 | 0.00 | 0.00 | 91 | 948.3 |
| 20260506143016 | 50 | 55 | 4.0 | 11.0 | 0.00 | 0.00 | 0.00 | 91 | 948.4 |
| 20260506141515 | 50 | 16 | 9.0 | 14.0 | 0.00 | 0.00 | 0.00 | 91 | 948.5 |
| 20260506140014 | 51 | 340 | 8.0 | 17.0 | 0.00 | 0.00 | 0.00 | 88 | 948.5 |
| 20260506134513 | 53 | 347 | 7.0 | 13.0 | 0.00 | 0.00 | 0.00 | 82 | 948.4 |
| 20260506133012 | 54 | 63 | 3.0 | 6.0 | 0.00 | 0.00 | 0.00 | 79 | 948.3 |
| 20260506131514 | 54 | 290 | 2.0 | 7.0 | 0.00 | 0.00 | 0.00 | 81 | 948.2 |
| 20260506130010 | 52 | 25 | 1.0 | 5.0 | 0.00 | 0.00 | 0.00 | 88 | 948.3 |
| 20260506124509 | 51 | 13 | 2.0 | 6.0 | 0.00 | 0.00 | 0.00 | 88 | 948.4 |
| 20260506123010 | 51 | 11 | 3.0 | 9.0 | 0.00 | 0.00 | 0.00 | 87 | 948.4 |
| 20260506121508 | 52 | 9 | 4.0 | 10.0 | 0.00 | 0.00 | 0.00 | 84 | 948.3 |
| 20260506120007 | 53 | 360 | 3.0 | 10.0 | 0.00 | 0.00 | 0.00 | 81 | 948.2 |
| 20260506114509 | 53 | 338 | 4.0 | 9.0 | 0.00 | 0.00 | 0.00 | 80 | 948.1 |
| 20260506113007 | 54 | 292 | 5.0 | 9.0 | 0.00 | 0.00 | 0.00 | 80 | 948.1 |
| 20260506111507 | 54 | 346 | 5.0 | 7.0 | 0.00 | 0.00 | 0.00 | 80 | 948.3 |
| 20260506110003 | 53 | 333 | 4.0 | 9.0 | 0.00 | 0.00 | 0.00 | 83 | 948.3 |
| 20260506104603 | 52 | 13 | 4.0 | 8.0 | 0.00 | 0.00 | 0.00 | 83 | 948.3 |
| 20260506103059 | 52 | 351 | 3.0 | 8.0 | 0.00 | 0.00 | 0.00 | 82 | 948.3 |
| 20260506101605 | 52 | 46 | 2.0 | 5.0 | 0.00 | 0.00 | 0.00 | 81 | 948.3 |
| 20260506100057 | 52 | 312 | 1.0 | 5.0 | 0.00 | 0.00 | 0.00 | 79 | 948.3 |
| 20260506094621 | 52 | 298 | 2.0 | 6.0 | 0.00 | 0.00 | 0.00 | 83 | 948.2 |
| 20260506093054 | 51 | 17 | 1.0 | 3.0 | 0.00 | 0.00 | 0.00 | 85 | 948.3 |
| 20260506091550 | 50 | 132 | 3.0 | 5.0 | 0.00 | 0.00 | 0.00 | 86 | 948.1 |
| 20260506090049 | 51 | 111 | 1.0 | 5.0 | 0.00 | 0.00 | 0.00 | 86 | 948.2 |
| 20260506084548 | 50 | 104 | 2.0 | 7.0 | 0.00 | 0.00 | 0.00 | 89 | 948.1 |
| 20260506083042 | 49 | 102 | 3.0 | 7.0 | 0.00 | 0.00 | 0.00 | 93 | 948.1 |
| 20260506081539 | 47 | 115 | 2.0 | 4.0 | 0.00 | 0.00 | 0.00 | 94 | 948.2 |
| 20260506073041 | 46 | 138 | 5.0 | 8.0 | 0.00 | 0.00 | 0.00 | 94 | 948.0 |
| 20260506071534 | 46 | 188 | 3.0 | 7.0 | 0.00 | 0.00 | 0.00 | 96 | 947.8 |
| 20260506061532 | 44 | 172 | 2.0 | 4.0 | 0.00 | 0.00 | 0.00 | 97 | 947.7 |
| 20260506044520 | 44 | 105 | 1.0 | 2.0 | 0.00 | 0.00 | 0.00 | 96 | 947.4 |
| 20260506043015 | 44 | 208 | 2.0 | 5.0 | 0.00 | 0.00 | 0.00 | 97 | 947.4 |
| 20260506041518 | 44 | 195 | 0.0 | 4.0 | 0.00 | 0.00 | 0.00 | 97 | 947.2 |
| 20260506040037 | 44 | 128 | 0.0 | 3.0 | 0.00 | 0.00 | 0.00 | 97 | 947.2 |
| 20260506034513 | 44 | 121 | 1.0 | 5.0 | 0.00 | 0.00 | 0.00 | 96 | 947.2 |
| 20260506033013 | 44 | 115 | 2.0 | 4.0 | 0.00 | 0.00 | 0.00 | 96 | 947.1 |
| 20260506031526 | 45 | 154 | 1.0 | 4.0 | 0.00 | 0.00 | 0.00 | 96 | 947.3 |
| 20260506030012 | 45 | 121 | 1.0 | 3.0 | 0.00 | 0.00 | 0.00 | 96 | 947.2 |
| 20260506024518 | 46 | 252 | 0.0 | 2.0 | 0.00 | 0.00 | 0.00 | 96 | 947.3 |
| 20260506023011 | 45 | 178 | 0.0 | 2.0 | 0.00 | 0.00 | 0.00 | 96 | 947.3 |
| 20260506021510 | 45 | 171 | 1.0 | 4.0 | 0.00 | 0.00 | 0.00 | 96 | 947.3 |
| 20260506020006 | 45 | 132 | 2.0 | 3.0 | 0.00 | 0.00 | 0.00 | 96 | 947.3 |
| 20260506014510 | 45 | 143 | 0.0 | 2.0 | 0.00 | 0.00 | 0.00 | 96 | 947.4 |
| 20260506013005 | 45 | 137 | 1.0 | 3.0 | 0.00 | 0.00 | 0.00 | 96 | 947.5 |
| 20260506011503 | 45 | 162 | 3.0 | 4.0 | 0.00 | 0.00 | 0.00 | 97 | 947.6 |
| 20260506010003 | 45 | 186 | 1.0 | 4.0 | 0.00 | 0.00 | 0.00 | 97 | 947.7 |
| 20260506004601 | 45 | 138 | 1.0 | 3.0 | 0.00 | 0.00 | 0.00 | 97 | 948.0 |
| 20260506003100 | 44 | 126 | 1.0 | 3.0 | 0.00 | 0.00 | 0.00 | 97 | 948.1 |
| 20260506001558 | 45 | 133 | 2.0 | 3.0 | 0.00 | 0.00 | 0.00 | 97 | 948.2 |
| 20260506000100 | 44 | 187 | 1.0 | 4.0 | 0.00 | 0.00 | 0.00 | 97 | 948.2 |
| 20260505234601 | 44 | 154 | 2.0 | 3.0 | 0.00 | 0.00 | 0.00 | 97 | 948.1 |
| 20260505233108 | 44 | 159 | 1.0 | 4.0 | 0.00 | 0.00 | 0.00 | 97 | 948.2 |
| 20260505231555 | 43 | 96 | 1.0 | 2.0 | 0.00 | 0.00 | 0.00 | 97 | 948.2 |
| 20260505230050 | 43 | 86 | 1.0 | 3.0 | 0.00 | 0.00 | 0.00 | 96 | 948.2 |
| 20260505224549 | 43 | 45 | 1.0 | 2.0 | 0.00 | 0.00 | 0.00 | 96 | 948.3 |
| 20260505223052 | 43 | 109 | 2.0 | 3.0 | 0.00 | 0.00 | 0.00 | 96 | 948.3 |
| 20260505221549 | 43 | 103 | 1.0 | 3.0 | 0.00 | 0.00 | 0.00 | 95 | 948.3 |
| 20260505220043 | 44 | 113 | 0.0 | 2.0 | 0.00 | 0.00 | 0.00 | 95 | 948.4 |
| 20260505214548 | 45 | 105 | 2.0 | 3.0 | 0.00 | 0.00 | 0.00 | 95 | 948.2 |
| 20260505213035 | 46 | 94 | 0.0 | 3.0 | 0.00 | 0.00 | 0.00 | 94 | 948.4 |
| 20260505211530 | 46 | 313 | 2.0 | 5.0 | 0.00 | 0.00 | 0.00 | 95 | 948.5 |
| 20260505210028 | 46 | 355 | 3.0 | 5.0 | 0.00 | 0.00 | 0.00 | 95 | 948.5 |
| 20260505204526 | 46 | 35 | 4.0 | 5.0 | 0.00 | 0.00 | 0.00 | 95 | 948.4 |
| 20260505203017 | 46 | 39 | 3.0 | 5.0 | 0.00 | 0.00 | 0.00 | 95 | 948.4 |
| 20260505201512 | 46 | 40 | 4.0 | 6.0 | 0.00 | 0.00 | 0.00 | 94 | 948.2 |
| 20260505200013 | 46 | 15 | 3.0 | 7.0 | 0.00 | 0.00 | 0.00 | 94 | 948.1 |
| 20260505194505 | 46 | 5 | 2.0 | 7.0 | 0.00 | 0.00 | 0.00 | 94 | 947.9 |
| 20260505193059 | 47 | 360 | 3.0 | 5.0 | 0.00 | 0.00 | 0.00 | 93 | 947.9 |
| 20260505191555 | 47 | 36 | 2.0 | 5.0 | 0.00 | 0.00 | 0.00 | 92 | 947.7 |
| 20260505190050 | 47 | 324 | 5.0 | 11.0 | 0.00 | 0.00 | 0.00 | 92 | 947.5 |
| 20260505184546 | 47 | 329 | 7.0 | 11.0 | 0.00 | 0.00 | 0.00 | 94 | 947.5 |
| 20260505183042 | 48 | 342 | 1.0 | 4.0 | 0.00 | 0.00 | 0.00 | 94 | 947.6 |
| 20260505181542 | 48 | 340 | 2.0 | 5.0 | 0.00 | 0.00 | 0.00 | 94 | 947.5 |
| 20260505180037 | 47 | 58 | 4.0 | 6.0 | 0.00 | 0.00 | 0.00 | 94 | 947.4 |
| 20260505174537 | 47 | 42 | 2.0 | 5.0 | 0.00 | 0.00 | 0.00 | 93 | 947.4 |
| 20260505173023 | 47 | 54 | 2.0 | 4.0 | 0.00 | 0.00 | 0.00 | 92 | 947.5 |
| 20260505171523 | 47 | 26 | 1.0 | 6.0 | 0.00 | 0.00 | 0.00 | 91 | 947.6 |
| 20260505170018 | 50 | 46 | 8.0 | 15.0 | 0.00 | 0.00 | 0.00 | 88 | 947.6 |
| 20260505164510 | 50 | 17 | 1.0 | 3.0 | 0.00 | 0.00 | 0.00 | 86 | 947.5 |
| 20260505163008 | 50 | 39 | 2.0 | 5.0 | 0.00 | 0.00 | 0.00 | 86 | 947.4 |
| 20260505161501 | 51 | 344 | 1.0 | 5.0 | 0.00 | 0.00 | 0.00 | 88 | 947.3 |